Location: Unspecified
(41.5000°N, 0.0000°E)
Time: 11:15:42
(UTC+00:00)

Courier 1B Rocket - Pass Details

Date: 03 July 2019
Orbit: 920 x 1202 km, 28.2° (Epoch: 16 July)

Event Time Altitude Azimuth Distance (km) Brightness Sun altitude
Rises 00:04:48 0° 232° (SW) 4,089 - -25.5°
Reaches altitude 10° 00:08:12 10° 220° (SW) 3,125 - -25.5°
Maximum altitude 00:14:19 26° 168° (SSE) 2,156 - -25.5°
Drops below altitude 10° 00:20:18 10° 116° (ESE) 3,049 - -25.4°
Exits shadow 00:20:18 10° 116° (ESE) 3,049 7.4 -25.4°
Sets 00:23:34 0° 104° (ESE) 3,971 8.1 -25.3°
